Tracking 30009 objects as of 7-Dec-2024
HD Live streaming from Space Station
objects crossing your sky now

COSMOS 1579 FUEL CORE

Track COSMOS 1579 FUEL CORE now!
10-day predictions


NORAD ID: 15330
Int'l Code: 1984-069D
Perigee: 913.0 km
Apogee: 959.3 km
Inclination: 65.1 °
Period: 103.6 minutes
Semi major axis: 7307 km
RCS: 0.1745 m2 (medium)
Launch date: June 29, 1984
Source: Commonwealth of Independent States (former USSR) (CIS)
Launch site: TYURATAM MISSILE AND SPACE COMPLEX (TTMTR)

Note: This is SATELLITE DEBRIS
Your satellite tracking list
Your tracking list is empty




NASA's NSSDC Master Catalog

Two Line Element Set (TLE):
1 15330U 84069D   24341.57541764 -.00000065  00000-0  19761-4 0  9992
2 15330  65.0540 203.1250 0031692 181.6831 194.6713 13.89901929 54489
Source of the keplerian elements: AFSPC